QPF
0.01 0.03 0.04 0.04 0.03 0.02 0.01 0.00 0.00 0.00 0.01 0.00 0.01 0.02 0.02 0.03 0.03 0.01 0.01 0.01 0.01 0.01 0.01 0.01 0.00 0.01 0.02 0.01 0.00 0.00 0.00 0.00 0.00 0.00 0.00 0.00 0.00 0.01 0.00 0.01 0.01 0.00 0.00 0.00
0.01 0.02 0.02 0.02 0.02 0.02 0.01 0.00 0.00 0.00 0.00 0.00 0.01 0.01 0.02 0.02 0.02 0.01 0.01 0.00 0.01 0.00 0.01 0.02 0.01 0.01 0.02 0.01 0.00 0.00 0.00 0.00 0.00 0.00 0.00 0.01 0.01 0.01 0.01 0.01 0.01 0.01 0.01 0.00
0.01 0.01 0.01 0.01 0.02 0.02 0.01 0.00 0.00 0.00 0.00 0.01 0.01 0.02 0.02 0.01 0.01 0.01 0.01 0.00 0.01 0.01 0.01 0.02 0.02 0.02 0.02 0.01 0.01 0.01 0.01 0.00 0.00 0.00 0.00 0.02 0.02 0.02 0.01 0.01 0.02 0.02 0.01 0.00
0.01 0.01 0.01 0.01 0.01 0.01 0.01 0.00 0.00 0.00 0.00 0.01 0.01 0.01 0.01 0.01 0.00 0.00 0.01 0.01 0.00 0.01 0.01 0.02 0.02 0.02 0.02 0.01 0.01 0.00 0.00 0.00 0.00 0.00 0.00 0.01 0.01 0.02 0.02 0.01 0.01 0.02 0.01 0.00
0.00 0.01 0.01 0.01 0.00 0.00 0.01 0.00 0.00 0.00 0.00 0.01 0.00 0.01 0.00 0.00 0.00 0.00 0.01 0.00 0.01 0.01 0.01 0.01 0.03 0.03 0.02 0.01 0.01 0.01 0.01 0.00 0.00 0.00 0.00 0.00 0.01 0.01 0.01 0.01 0.01 0.01 0.02 0.02
0.01 0.01 0.01 0.00 0.00 0.00 0.00 0.00 0.01 0.01 0.01 0.01 0.00 0.00 0.00 0.00 0.00 0.00 0.00 0.01 0.01 0.01 0.01 0.01 0.03 0.04 0.03 0.02 0.01 0.02 0.02 0.01 0.00 0.00 0.00 0.00 0.00 0.00 0.00 0.00 0.00 0.00 0.01 0.02
0.01 0.01 0.01 0.01 0.01 0.00 0.00 0.00 0.01 0.01 0.01 0.01 0.00 0.00 0.00 0.00 0.00 0.00 0.00 0.01 0.02 0.02 0.01 0.01 0.03 0.04 0.03 0.02 0.02 0.01 0.02 0.02 0.01 0.00 0.00 0.00 0.00 0.00 0.00 0.00 0.00 0.00 0.00 0.01
0.01 0.01 0.01 0.01 0.01 0.00 0.00 0.01 0.01 0.01 0.01 0.00 0.00 0.00 0.00 0.00 0.00 0.00 0.00 0.01 0.02 0.02 0.02 0.01 0.03 0.04 0.03 0.03 0.01 0.01 0.01 0.02 0.01 0.01 0.00 0.00 0.00 0.00 0.00 0.00 0.00 0.00 0.00 0.00
0.00 0.01 0.01 0.00 0.00 0.01 0.01 0.02 0.01 0.00 0.00 0.00 0.00 0.00 0.00 0.00 0.00 0.00 0.00 0.01 0.02 0.02 0.02 0.01 0.03 0.05 0.04 0.03 0.02 0.01 0.02 0.01 0.01 0.01 0.01 0.00 0.00 0.00 0.00 0.00 0.00 0.00 0.00 0.00
0.00 0.00 0.00 0.00 0.00 0.00 0.01 0.02 0.02 0.01 0.01 0.01 0.00 0.00 0.00 0.00 0.00 0.00 0.00 0.01 0.02 0.02 0.02 0.02 0.02 0.03 0.04 0.04 0.03 0.02 0.02 0.01 0.01 0.01 0.01 0.01 0.00 0.00 0.00 0.00 0.00 0.00 0.00 0.00
0.01 0.01 0.01 0.01 0.00 0.00 0.00 0.01 0.01 0.01 0.01 0.01 0.00 0.00 0.00 0.00 0.00 0.00 0.00 0.01 0.01 0.02 0.03 0.03 0.02 0.03 0.04 0.05 0.04 0.03 0.03 0.02 0.02 0.02 0.02 0.02 0.01 0.00 0.00 0.00 0.00 0.00 0.00 0.00
0.01 0.01 0.01 0.01 0.00 0.00 0.00 0.00 0.00 0.01 0.01 0.02 0.01 0.00 0.00 0.00 0.00 0.01 0.00 0.01 0.01 0.02 0.04 0.04 0.04 0.04 0.05 0.05 0.04 0.03 0.03 0.03 0.02 0.02 0.02 0.02 0.01 0.01 0.00 0.00 0.00 0.00 0.00 0.00
0.01 0.01 0.01 0.01 0.01 0.00 0.00 0.00 0.00 0.01 0.01 0.02 0.01 0.00 0.00 0.00 0.00 0.00 0.00 0.01 0.01 0.01 0.02 0.03 0.04 0.04 0.04 0.04 0.04 0.04 0.04 0.03 0.02 0.01 0.01 0.01 0.01 0.01 0.01 0.00 0.00 0.00 0.00 0.00
0.02 0.01 0.01 0.01 0.01 0.00 0.00 0.00 0.00 0.00 0.01 0.01 0.00 0.00 0.00 0.01 0.00 0.00 0.01 0.01 0.01 0.01 0.01 0.02 0.02 0.03 0.03 0.04 0.03 0.03 0.04 0.04 0.02 0.01 0.01 0.01 0.01 0.01 0.01 0.01 0.00 0.00 0.00 0.00
0.02 0.01 0.01 0.01 0.01 0.00 0.00 0.00 0.00 0.00 0.00 0.00 0.00 0.00 0.00 0.00 0.00 0.00 0.00 0.01 0.01 0.02 0.02 0.02 0.02 0.02 0.03 0.03 0.03 0.03 0.03 0.04 0.04 0.02 0.01 0.01 0.01 0.02 0.02 0.01 0.00 0.00 0.00 0.00
0.02 0.02 0.01 0.01 0.01 0.01 0.00 0.00 0.00 0.00 0.00 0.00 0.00 0.00 0.00 0.00 0.00 0.01 0.01 0.01 0.01 0.01 0.02 0.04 0.04 0.04 0.03 0.03 0.04 0.04 0.03 0.04 0.04 0.03 0.02 0.01 0.01 0.01 0.02 0.02 0.01 0.01 0.01 0.01
0.03 0.02 0.02 0.01 0.01 0.01 0.01 0.00 0.00 0.00 0.00 0.00 0.00 0.00 0.00 0.00 0.00 0.00 0.01 0.01 0.01 0.01 0.01 0.03 0.04 0.05 0.04 0.04 0.04 0.05 0.05 0.05 0.04 0.04 0.02 0.02 0.01 0.01 0.02 0.02 0.02 0.01 0.01 0.01
0.03 0.02 0.02 0.01 0.01 0.01 0.00 0.00 0.00 0.00 0.00 0.00 0.00 0.00 0.00 0.00 0.00 0.00 0.00 0.01 0.01 0.01 0.02 0.02 0.03 0.04 0.04 0.04 0.05 0.07 0.06 0.04 0.04 0.04 0.03 0.02 0.01 0.01 0.02 0.02 0.02 0.01 0.01 0.00
0.02 0.02 0.02 0.01 0.00 0.00 0.00 0.00 0.00 0.00 0.00 0.00 0.00 0.00 0.00 0.00 0.00 0.00 0.01 0.01 0.01 0.01 0.02 0.03 0.03 0.02 0.03 0.04 0.05 0.05 0.05 0.03 0.02 0.03 0.04 0.03 0.02 0.01 0.01 0.02 0.02 0.01 0.01 0.00
0.02 0.01 0.01 0.01 0.00 0.00 0.00 0.00 0.00 0.00 0.00 0.00 0.00 0.00 0.01 0.01 0.01 0.01 0.02 0.01 0.01 0.02 0.02 0.03 0.03 0.03 0.02 0.03 0.03 0.03 0.03 0.02 0.01 0.01 0.02 0.03 0.03 0.02 0.01 0.02 0.02 0.01 0.00 0.00
0.02 0.01 0.01 0.00 0.00 0.00 0.00 0.00 0.00 0.00 0.00 0.00 0.00 0.01 0.02 0.03 0.03 0.03 0.03 0.02 0.02 0.02 0.02 0.02 0.02 0.02 0.02 0.02 0.02 0.02 0.02 0.01 0.02 0.02 0.02 0.03 0.04 0.04 0.03 0.02 0.02 0.01 0.00 0.00
0.02 0.01 0.01 0.00 0.00 0.00 0.00 0.00 0.00 0.00 0.00 0.00 0.00 0.01 0.01 0.02 0.03 0.03 0.03 0.02 0.02 0.02 0.02 0.02 0.02 0.01 0.02 0.02 0.01 0.01 0.01 0.02 0.02 0.02 0.02 0.02 0.02 0.04 0.05 0.05 0.04 0.03 0.02 0.01
0.01 0.01 0.01 0.01 0.00 0.00 0.00 0.00 0.00 0.00 0.00 0.00 0.00 0.01 0.01 0.01 0.01 0.02 0.02 0.02 0.01 0.01 0.01 0.02 0.01 0.01 0.01 0.01 0.01 0.01 0.01 0.02 0.02 0.02 0.01 0.02 0.02 0.02 0.03 0.05 0.05 0.04 0.03 0.02
0.01 0.01 0.01 0.00 0.00 0.00 0.00 0.00 0.00 0.00 0.00 0.00 0.00 0.00 0.00 0.00 0.00 0.00 0.01 0.01 0.01 0.01 0.01 0.01 0.01 0.01 0.01 0.01 0.01 0.02 0.03 0.02 0.02 0.02 0.02 0.01 0.01 0.01 0.01 0.01 0.02 0.02 0.02 0.03
0.01 0.01 0.01 0.00 0.00 0.00 0.00 0.01 0.00 0.00 0.00 0.00 0.00 0.00 0.00 0.00 0.00 0.00 0.00 0.00 0.00 0.00 0.00 0.01 0.01 0.01 0.01 0.02 0.02 0.02 0.02 0.02 0.01 0.02 0.02 0.02 0.01 0.01 0.01 0.01 0.01 0.01 0.02 0.03
0.00 0.00 0.00 0.00 0.00 0.00 0.00 0.00 0.00 0.00 0.00 0.00 0.00 0.00 0.00 0.00 0.00 0.00 0.00 0.00 0.00 0.00 0.00 0.00 0.01 0.01 0.01 0.01 0.02 0.02 0.03 0.03 0.02 0.02 0.02 0.01 0.01 0.01 0.01 0.02 0.02 0.03 0.03 0.02
MSLP
1016.70 1017.66 1018.46 1019.13 1019.67 1020.15 1020.59 1021.02 1021.45 1021.85 1022.19 1022.42 1022.52 1022.47 1022.28 1022.00 1021.69 1021.39 1021.17 1021.04 1021.03 1021.10 1021.22 1021.36 1021.46 1021.52 1021.52 1021.48 1021.43 1021.40 1021.41 1021.48 1021.59 1021.73 1021.87 1021.97 1022.01 1021.97 1021.85 1021.66 1021.43 1021.19 1020.94 1020.72
1017.48 1018.27 1018.90 1019.41 1019.84 1020.25 1020.69 1021.18 1021.70 1022.21 1022.63 1022.92 1023.03 1022.95 1022.69 1022.31 1021.90 1021.53 1021.26 1021.13 1021.14 1021.27 1021.46 1021.66 1021.81 1021.88 1021.88 1021.82 1021.74 1021.68 1021.68 1021.75 1021.90 1022.09 1022.29 1022.45 1022.54 1022.53 1022.42 1022.24 1022.00 1021.74 1021.49 1021.27
1018.12 1018.74 1019.20 1019.57 1019.91 1020.28 1020.75 1021.30 1021.92 1022.52 1023.03 1023.36 1023.46 1023.32 1022.98 1022.50 1021.99 1021.54 1021.23 1021.10 1021.14 1021.33 1021.59 1021.85 1022.06 1022.17 1022.17 1022.11 1022.01 1021.93 1021.93 1022.02 1022.20 1022.43 1022.69 1022.91 1023.05 1023.09 1023.02 1022.85 1022.62 1022.37 1022.12 1021.91
1018.62 1019.08 1019.40 1019.66 1019.93 1020.30 1020.81 1021.44 1022.15 1022.84 1023.40 1023.75 1023.82 1023.61 1023.17 1022.58 1021.96 1021.43 1021.07 1020.93 1021.01 1021.25 1021.59 1021.93 1022.20 1022.35 1022.39 1022.33 1022.23 1022.15 1022.14 1022.24 1022.45 1022.73 1023.04 1023.32 1023.53 1023.62 1023.59 1023.47 1023.27 1023.04 1022.81 1022.62
1019.02 1019.33 1019.54 1019.72 1019.97 1020.36 1020.93 1021.64 1022.43 1023.19 1023.78 1024.12 1024.13 1023.83 1023.27 1022.56 1021.83 1021.21 1020.80 1020.65 1020.75 1021.05 1021.46 1021.88 1022.23 1022.44 1022.52 1022.48 1022.39 1022.31 1022.31 1022.42 1022.65 1022.97 1023.33 1023.67 1023.94 1024.10 1024.13 1024.06 1023.91 1023.72 1023.53 1023.35
1019.34 1019.54 1019.65 1019.79 1020.05 1020.48 1021.12 1021.91 1022.77 1023.57 1024.16 1024.46 1024.40 1023.99 1023.30 1022.45 1021.61 1020.90 1020.44 1020.28 1020.40 1020.76 1021.24 1021.75 1022.17 1022.45 1022.58 1022.58 1022.51 1022.44 1022.44 1022.56 1022.81 1023.15 1023.55 1023.94 1024.27 1024.50 1024.60 1024.59 1024.50 1024.36 1024.21 1024.08
1019.62 1019.72 1019.78 1019.90 1020.18 1020.67 1021.38 1022.24 1023.14 1023.95 1024.52 1024.75 1024.60 1024.07 1023.25 1022.28 1021.33 1020.55 1020.05 1019.87 1020.02 1020.43 1020.99 1021.57 1022.07 1022.42 1022.61 1022.65 1022.61 1022.55 1022.56 1022.68 1022.93 1023.29 1023.72 1024.15 1024.53 1024.82 1024.99 1025.05 1025.03 1024.95 1024.85 1024.75
1019.84 1019.87 1019.90 1020.04 1020.35 1020.90 1021.66 1022.56 1023.49 1024.28 1024.81 1024.96 1024.70 1024.06 1023.14 1022.07 1021.04 1020.20 1019.67 1019.50 1019.68 1020.13 1020.75 1021.40 1021.97 1022.39 1022.64 1022.73 1022.71 1022.68 1022.69 1022.81 1023.05 1023.42 1023.85 1024.31 1024.74 1025.08 1025.31 1025.43 1025.47 1025.45 1025.40 1025.35
1019.97 1019.97 1020.01 1020.17 1020.53 1021.12 1021.91 1022.83 1023.74 1024.49 1024.95 1025.03 1024.68 1023.96 1022.96 1021.83 1020.76 1019.90 1019.37 1019.21 1019.42 1019.91 1020.57 1021.28 1021.91 1022.39 1022.69 1022.83 1022.85 1022.83 1022.85 1022.96 1023.20 1023.55 1023.99 1024.46 1024.91 1025.29 1025.57 1025.75 1025.84 1025.87 1025.87 1025.86
1020.00 1020.00 1020.06 1020.26 1020.65 1021.27 1022.08 1022.98 1023.84 1024.53 1024.92 1024.91 1024.50 1023.73 1022.70 1021.56 1020.51 1019.67 1019.16 1019.04 1019.27 1019.80 1020.50 1021.24 1021.91 1022.44 1022.78 1022.96 1023.01 1023.01 1023.04 1023.16 1023.39 1023.73 1024.16 1024.62 1025.08 1025.49 1025.80 1026.02 1026.16 1026.23 1026.27 1026.30
1019.91 1019.95 1020.05 1020.29 1020.71 1021.33 1022.11 1022.96 1023.75 1024.35 1024.65 1024.58 1024.13 1023.35 1022.35 1021.27 1020.27 1019.50 1019.06 1018.98 1019.25 1019.80 1020.51 1021.26 1021.95 1022.50 1022.88 1023.08 1023.17 1023.21 1023.26 1023.38 1023.60 1023.94 1024.35 1024.81 1025.27 1025.69 1026.02 1026.28 1026.45 1026.55 1026.62 1026.68
1019.73 1019.83 1019.99 1020.26 1020.70 1021.30 1022.02 1022.77 1023.46 1023.95 1024.17 1024.04 1023.58 1022.84 1021.91 1020.93 1020.04 1019.38 1019.02 1019.00 1019.30 1019.85 1020.55 1021.30 1021.98 1022.53 1022.92 1023.16 1023.29 1023.37 1023.45 1023.59 1023.83 1024.16 1024.57 1025.02 1025.47 1025.89 1026.24 1026.51 1026.71 1026.84 1026.94 1027.02
1019.52 1019.70 1019.92 1020.23 1020.66 1021.20 1021.82 1022.45 1023.00 1023.37 1023.49 1023.32 1022.87 1022.19 1021.37 1020.53 1019.79 1019.26 1019.00 1019.04 1019.36 1019.90 1020.57 1021.27 1021.93 1022.46 1022.87 1023.14 1023.31 1023.43 1023.56 1023.75 1024.01 1024.35 1024.76 1025.21 1025.66 1026.08 1026.44 1026.73 1026.94 1027.11 1027.23 1027.34
1019.38 1019.64 1019.92 1020.25 1020.64 1021.10 1021.59 1022.05 1022.43 1022.66 1022.67 1022.46 1022.04 1021.44 1020.75 1020.06 1019.49 1019.09 1018.94 1019.04 1019.36 1019.87 1020.49 1021.13 1021.73 1022.24 1022.64 1022.94 1023.17 1023.35 1023.55 1023.79 1024.10 1024.47 1024.89 1025.35 1025.80 1026.22 1026.59 1026.89 1027.13 1027.32 1027.47 1027.61
1019.41 1019.75 1020.07 1020.38 1020.71 1021.04 1021.37 1021.65 1021.84 1021.90 1021.80 1021.54 1021.14 1020.62 1020.06 1019.54 1019.12 1018.86 1018.79 1018.93 1019.25 1019.71 1020.26 1020.82 1021.36 1021.83 1022.23 1022.56 1022.84 1023.10 1023.38 1023.69 1024.06 1024.47 1024.93 1025.39 1025.85 1026.28 1026.66 1026.98 1027.25 1027.47 1027.65 1027.82
1019.69 1020.07 1020.39 1020.67 1020.89 1021.08 1021.22 1021.29 1021.27 1021.16 1020.95 1020.63 1020.24 1019.79 1019.35 1018.97 1018.68 1018.54 1018.54 1018.70 1019.00 1019.39 1019.85 1020.33 1020.80 1021.23 1021.62 1021.99 1022.33 1022.67 1023.04 1023.44 1023.87 1024.34 1024.83 1025.32 1025.79 1026.23 1026.62 1026.97 1027.26 1027.52 1027.74 1027.95
1020.21 1020.60 1020.90 1021.09 1021.19 1021.21 1021.14 1021.00 1020.78 1020.50 1020.16 1019.78 1019.39 1019.00 1018.66 1018.38 1018.21 1018.14 1018.19 1018.35 1018.60 1018.93 1019.30 1019.69 1020.09 1020.48 1020.87 1021.27 1021.67 1022.10 1022.55 1023.04 1023.55 1024.07 1024.60 1025.11 1025.60 1026.05 1026.46 1026.83 1027.16 1027.45 1027.71 1027.96
1020.91 1021.27 1021.50 1021.59 1021.55 1021.39 1021.12 1020.78 1020.37 1019.93 1019.48 1019.04 1018.64 1018.29 1018.01 1017.82 1017.72 1017.70 1017.77 1017.91 1018.11 1018.35 1018.63 1018.94 1019.28 1019.64 1020.03 1020.46 1020.93 1021.43 1021.97 1022.53 1023.11 1023.68 1024.24 1024.77 1025.28 1025.74 1026.17 1026.56 1026.92 1027.25 1027.55 1027.83
1021.66 1021.95 1022.08 1022.05 1021.86 1021.53 1021.09 1020.57 1020.01 1019.44 1018.90 1018.42 1018.01 1017.68 1017.45 1017.31 1017.25 1017.26 1017.32 1017.43 1017.57 1017.73 1017.94 1018.17 1018.46 1018.79 1019.19 1019.65 1020.16 1020.73 1021.34 1021.96 1022.59 1023.20 1023.78 1024.33 1024.84 1025.32 1025.76 1026.17 1026.55 1026.91 1027.25 1027.57
1022.29 1022.48 1022.49 1022.33 1022.00 1021.53 1020.95 1020.31 1019.64 1018.99 1018.40 1017.90 1017.49 1017.19 1016.99 1016.88 1016.84 1016.85 1016.89 1016.95 1017.03 1017.13 1017.27 1017.45 1017.69 1018.00 1018.40 1018.88 1019.43 1020.04 1020.69 1021.36 1022.01 1022.65 1023.24 1023.80 1024.31 1024.79 1025.24 1025.66 1026.07 1026.46 1026.82 1027.16
1022.64 1022.71 1022.60 1022.32 1021.88 1021.31 1020.65 1019.93 1019.22 1018.55 1017.95 1017.45 1017.07 1016.79 1016.62 1016.53 1016.49 1016.49 1016.51 1016.52 1016.55 1016.60 1016.67 1016.81 1017.02 1017.31 1017.71 1018.19 1018.76 1019.39 1020.06 1020.74 1021.40 1022.04 1022.63 1023.18 1023.69 1024.17 1024.62 1025.05 1025.47 1025.87 1026.26 1026.61
1022.61 1022.56 1022.33 1021.95 1021.44 1020.81 1020.12 1019.41 1018.71 1018.06 1017.51 1017.06 1016.72 1016.48 1016.34 1016.26 1016.22 1016.20 1016.18 1016.17 1016.15 1016.15 1016.18 1016.28 1016.46 1016.74 1017.12 1017.60 1018.16 1018.78 1019.44 1020.10 1020.75 1021.37 1021.94 1022.48 1022.97 1023.44 1023.90 1024.33 1024.76 1025.17 1025.56 1025.93
1022.17 1022.00 1021.68 1021.24 1020.69 1020.06 1019.40 1018.74 1018.11 1017.55 1017.07 1016.70 1016.42 1016.24 1016.12 1016.06 1016.01 1015.98 1015.93 1015.88 1015.83 1015.79 1015.80 1015.87 1016.02 1016.27 1016.63 1017.07 1017.60 1018.19 1018.81 1019.43 1020.04 1020.62 1021.17 1021.68 1022.16 1022.62 1023.07 1023.50 1023.93 1024.35 1024.74 1025.10
1021.38 1021.11 1020.72 1020.24 1019.70 1019.11 1018.53 1017.97 1017.45 1017.01 1016.65 1016.37 1016.18 1016.05 1015.97 1015.91 1015.87 1015.81 1015.75 1015.67 1015.59 1015.53 1015.51 1015.56 1015.68 1015.90 1016.21 1016.61 1017.08 1017.60 1018.16 1018.72 1019.27 1019.80 1020.30 1020.78 1021.24 1021.70 1022.13 1022.57 1023.00 1023.41 1023.80 1024.15
1020.34 1019.99 1019.56 1019.08 1018.58 1018.08 1017.60 1017.17 1016.80 1016.50 1016.26 1016.09 1015.98 1015.91 1015.86 1015.82 1015.77 1015.70 1015.62 1015.52 1015.43 1015.35 1015.32 1015.34 1015.43 1015.60 1015.85 1016.18 1016.58 1017.02 1017.48 1017.96 1018.44 1018.91 1019.36 1019.81 1020.25 1020.69 1021.12 1021.55 1021.97 1022.37 1022.75 1023.10
1019.20 1018.79 1018.34 1017.89 1017.46 1017.06 1016.72 1016.44 1016.22 1016.06 1015.95 1015.89 1015.85 1015.83 1015.81 1015.77 1015.72 1015.65 1015.55 1015.45 1015.35 1015.26 1015.21 1015.20 1015.25 1015.37 1015.56 1015.81 1016.10 1016.44 1016.81 1017.20 1017.59 1017.99 1018.40 1018.80 1019.22 1019.64 1020.06 1020.49 1020.90 1021.29 1021.66 1021.99
Thickness
5714 5702 5694 5698 5702 5703 5698 5692 5689 5695 5706 5701 5696 5697 5702 5706 5706 5705 5705 5707 5708 5711 5715 5717 5718 5718 5717 5716 5716 5715 5714 5714 5714 5713 5712 5710 5709 5710 5711 5712 5712 5713 5713 5713
5698 5694 5704 5708 5706 5703 5697 5690 5689 5695 5704 5700 5693 5695 5702 5705 5706 5707 5707 5707 5708 5710 5711 5713 5715 5715 5715 5714 5714 5713 5712 5712 5712 5712 5711 5709 5708 5707 5707 5708 5709 5709 5710 5709
5694 5701 5710 5707 5701 5696 5693 5689 5689 5689 5695 5696 5692 5688 5695 5703 5707 5709 5710 5710 5711 5711 5710 5711 5712 5713 5713 5712 5712 5713 5711 5711 5710 5710 5709 5707 5706 5704 5704 5704 5704 5705 5706 5706
5697 5706 5707 5702 5698 5697 5687 5699 5696 5692 5682 5675 5684 5668 5687 5695 5699 5705 5707 5708 5710 5712 5712 5711 5711 5711 5712 5713 5712 5711 5710 5709 5709 5708 5707 5705 5702 5699 5700 5700 5701 5701 5702 5702
5695 5703 5702 5698 5701 5702 5696 5702 5696 5689 5681 5673 5676 5670 5679 5692 5693 5702 5708 5710 5712 5713 5713 5713 5713 5713 5713 5712 5711 5709 5708 5707 5707 5706 5706 5704 5701 5699 5698 5698 5698 5698 5698 5698
5700 5708 5707 5705 5708 5707 5703 5694 5686 5677 5671 5662 5672 5667 5673 5687 5698 5706 5711 5713 5714 5714 5714 5714 5714 5713 5711 5710 5709 5707 5706 5705 5705 5704 5703 5702 5700 5698 5696 5695 5694 5694 5694 5694
5690 5698 5707 5710 5699 5699 5695 5676 5658 5655 5651 5656 5673 5671 5679 5704 5711 5714 5715 5715 5716 5716 5713 5712 5711 5710 5709 5708 5707 5706 5704 5703 5703 5702 5701 5701 5699 5697 5696 5694 5692 5691 5690 5690
5675 5676 5697 5705 5700 5690 5687 5679 5658 5649 5646 5655 5670 5669 5692 5714 5718 5720 5720 5718 5717 5715 5714 5713 5712 5711 5709 5707 5706 5705 5703 5702 5701 5700 5700 5699 5698 5696 5694 5693 5692 5690 5689 5688
5674 5677 5699 5706 5707 5698 5682 5676 5678 5662 5658 5653 5661 5677 5697 5713 5714 5715 5715 5715 5714 5715 5714 5714 5712 5711 5709 5707 5706 5705 5702 5701 5700 5699 5698 5696 5695 5694 5692 5691 5690 5689 5687 5687
5686 5677 5692 5700 5702 5697 5692 5681 5666 5658 5649 5646 5660 5670 5681 5700 5706 5710 5711 5711 5713 5714 5713 5713 5712 5711 5710 5708 5706 5704 5702 5700 5699 5698 5696 5695 5693 5692 5690 5689 5687 5686 5685 5684
5690 5677 5681 5688 5686 5683 5681 5676 5669 5660 5658 5648 5648 5667 5701 5704 5709 5709 5711 5713 5713 5713 5713 5712 5712 5710 5708 5706 5704 5702 5700 5698 5697 5695 5694 5692 5690 5689 5688 5686 5685 5683 5682 5681
5686 5673 5667 5679 5693 5697 5691 5683 5672 5661 5656 5653 5651 5668 5710 5710 5712 5712 5712 5713 5714 5714 5713 5712 5710 5707 5705 5703 5701 5699 5698 5697 5696 5694 5691 5689 5688 5686 5684 5683 5682 5681 5679 5678
5682 5669 5658 5663 5673 5684 5684 5683 5680 5671 5658 5650 5650 5671 5707 5708 5710 5712 5712 5712 5712 5712 5711 5709 5707 5704 5703 5701 5699 5698 5696 5695 5694 5691 5689 5686 5684 5683 5682 5681 5680 5678 5676 5674
5686 5669 5664 5661 5668 5676 5678 5681 5679 5670 5657 5654 5661 5675 5695 5702 5706 5709 5710 5711 5711 5710 5708 5706 5704 5703 5702 5700 5698 5697 5695 5693 5691 5689 5686 5684 5682 5681 5680 5678 5677 5675 5673 5671
5680 5668 5671 5676 5682 5682 5682 5683 5680 5675 5672 5666 5674 5679 5694 5702 5706 5709 5709 5709 5708 5707 5706 5705 5703 5701 5700 5698 5696 5695 5693 5691 5690 5686 5683 5682 5680 5678 5676 5674 5673 5671 5669 5667
5670 5666 5668 5670 5678 5679 5677 5683 5683 5681 5680 5678 5681 5685 5702 5706 5706 5705 5706 5706 5706 5706 5706 5705 5703 5701 5699 5697 5695 5693 5691 5689 5687 5684 5682 5679 5677 5675 5672 5671 5669 5667 5664 5662
5658 5658 5654 5654 5667 5670 5664 5681 5684 5683 5685 5683 5679 5691 5700 5699 5701 5703 5704 5705 5706 5707 5706 5705 5703 5701 5699 5697 5696 5692 5690 5687 5684 5682 5679 5676 5674 5671 5669 5667 5665 5662 5660 5658
5654 5651 5644 5645 5653 5647 5673 5693 5693 5687 5687 5689 5691 5695 5698 5700 5703 5706 5706 5705 5705 5707 5706 5704 5703 5701 5699 5697 5694 5691 5688 5684 5682 5679 5676 5673 5671 5668 5665 5663 5660 5658 5656 5653
5654 5649 5638 5635 5639 5651 5673 5688 5688 5683 5682 5692 5691 5695 5697 5700 5700 5700 5705 5707 5708 5708 5707 5706 5704 5700 5697 5694 5692 5688 5684 5681 5679 5676 5674 5671 5669 5665 5662 5658 5656 5654 5652 5649
5647 5646 5637 5631 5635 5640 5668 5690 5694 5686 5674 5692 5693 5693 5692 5692 5682 5690 5703 5705 5705 5706 5705 5703 5700 5697 5693 5691 5688 5684 5681 5678 5676 5675 5673 5670 5667 5663 5659 5656 5653 5651 5649 5646
5633 5631 5630 5629 5633 5646 5672 5685 5686 5664 5671 5691 5692 5691 5689 5687 5690 5697 5701 5702 5702 5702 5701 5699 5697 5693 5691 5688 5685 5681 5678 5677 5677 5674 5670 5667 5664 5661 5657 5653 5650 5647 5644 5641
5629 5627 5625 5625 5628 5643 5674 5675 5670 5673 5685 5688 5688 5689 5688 5689 5693 5695 5696 5696 5697 5696 5695 5694 5691 5688 5686 5684 5682 5678 5676 5676 5673 5670 5666 5663 5660 5658 5654 5650 5646 5643 5639 5636
5628 5634 5633 5637 5645 5662 5670 5673 5679 5681 5681 5684 5685 5687 5688 5687 5688 5690 5691 5691 5691 5691 5690 5689 5686 5683 5681 5680 5679 5676 5674 5672 5669 5666 5662 5659 5655 5653 5650 5647 5642 5639 5635 5632
5625 5631 5631 5635 5647 5658 5665 5670 5675 5678 5680 5683 5684 5685 5685 5684 5685 5685 5685 5685 5685 5685 5684 5683 5681 5677 5675 5674 5675 5674 5671 5669 5666 5661 5658 5654 5651 5647 5645 5643 5640 5636 5632 5629
5621 5623 5625 5630 5642 5650 5660 5664 5668 5672 5676 5678 5680 5681 5681 5681 5680 5680 5680 5679 5679 5679 5679 5678 5675 5673 5671 5669 5668 5668 5666 5664 5660 5656 5653 5650 5647 5643 5640 5638 5636 5634 5632 5630
5615 5620 5622 5628 5638 5640 5649 5659 5663 5664 5668 5671 5672 5673 5675 5676 5675 5675 5675 5674 5674 5673 5672 5671 5670 5668 5667 5665 5663 5662 5661 5659 5656 5651 5648 5645 5642 5639 5635 5632 5628 5627 5627 5625